Weather in Tesovskiy

Russia / Novgorod Oblast     58°47′29″N   30°52′32″E
temp.,
°C
wind,
m/s
gust,
m/s
humid.,
%
clouds,
%
prec.,
mm/h
press.,
hPa
HPBL,
m
6 may, thu
thu600:00+5ese3796100 0.0 1001252
03:00+5ese3998100 0.4 999315
06:00+5ene2699100 3.6 994211
09:00+7wsw2599100 5.7 992292
12:00+6wsw2598100 4.7 992313
15:00+9sw488695 5.1 993981
18:00+7sw51289100 2.3 9941057
21:00+5sw51291100 2.4 997891
7 may, fri
fri700:00+5ssw51295100 0.1 9971047
03:00+4sw61297100 0.9 9981204
06:00+4sw51198100 1.3 9991127
09:00+4ssw51197100 1.4 1001985
12:00+6sw51190100 0.1 10031120
15:00+8sw597691 0.8 10051340
18:00+9wsw367661 0.6 10051030
21:00+4ese1191100 0.8 100610
8 may, sat
sat800:00+4e2292100 0.0 100541
03:00+4ene3692100 0.0 1002151
06:00+4ne3897100 1.4 1000302
09:00+6ene2799100 2.8 999404
12:00+9ese1291100 0.1 998477
15:00+9ne1291100 1.7 997180
18:00+7nnw5898100 7.1 996469
21:00+4nnw71398100 15.6 9971030
9 may, sun
sun900:00+5nw71795100 4.1 9991369
03:00+4wnw71688100 4.2 10031201
06:00+3wnw615884 0.0 1007963
09:00+7wnw611694 0.0 1010966
12:00+10wnw69425 0.0 10142222
15:00+12wnw57346 0.0 10162196
18:00+12wsw364961 0.0 10171781
21:00+7ssw267373 0.0 1018107
10 may, mon
mon1000:00+5ssw3108286 0.0 1019225
03:00+4ssw288956 0.0 1020161
06:00+4s2687100 0.0 1021170
09:00+6sse31086100 0.0 1022419
12:00+13s356993 0.0 1022931
15:00+15ssw3566100 0.0 10221089
18:00+14sse367985 0.0 1023332
21:00+12sse3892100 0.0 1024148